Theta_e
321 322 323 321 323 322 321 321 322 322 321 322 323 322 321 321 320 320 321 321 321 320 321 321 320 319 318 316 316 316 317 317 320 324 324 327 327 330 326 326 328 328 329 329
322 324 318 318 319 321 322 323 322 321 321 323 322 321 320 320 321 321 321 321 321 321 320 319 318 317 315 315 315 315 315 315 317 321 326 329 331 332 328 324 326 328 328 330
321 318 319 321 321 322 322 321 320 321 321 322 323 323 321 321 320 320 320 321 320 318 318 318 315 314 314 315 317 316 315 315 316 320 325 328 329 330 330 331 332 331 329 328
318 317 318 319 321 320 322 320 320 321 322 324 319 320 320 319 319 318 318 318 318 317 317 314 313 313 314 315 316 317 316 316 320 321 325 327 328 329 330 330 330 329 328 329
318 317 318 319 319 318 320 319 322 322 323 322 321 321 318 318 317 317 317 317 317 316 314 312 312 312 313 314 316 317 317 317 317 320 325 327 327 328 328 327 328 327 326 326
315 316 317 317 316 318 318 319 320 319 320 322 319 318 317 318 318 318 317 316 314 313 312 310 310 310 311 312 314 316 317 318 319 321 325 325 325 324 325 324 324 324 325 325
316 316 317 317 316 318 318 319 320 320 322 320 316 317 317 317 317 317 317 316 312 310 310 308 307 306 309 310 310 311 314 316 318 321 320 320 322 322 322 322 322 323 323 324
319 319 317 317 317 317 319 319 316 315 319 318 317 318 317 317 317 316 314 314 311 310 308 306 304 305 307 308 309 309 309 309 309 311 315 317 317 316 315 312 311 310 310 310
318 318 315 316 316 317 318 319 317 318 318 319 318 318 318 317 315 313 313 312 311 309 306 304 302 302 304 306 306 306 306 307 307 308 308 308 308 308 307 307 307 306 306 306
313 317 313 315 316 316 317 317 319 318 321 320 316 315 316 319 317 315 312 311 310 307 304 302 300 299 301 302 302 303 302 302 302 302 302 302 301 301 300 300 300 300 300 300
312 313 314 315 316 317 317 318 318 318 319 317 317 316 316 315 315 315 313 311 309 306 303 301 299 299 299 299 299 299 299 299 299 299 299 299 299 299 299 300 299 298 298 298
313 312 314 314 313 314 317 316 317 319 321 319 318 319 314 314 315 315 314 311 308 305 303 300 298 298 298 298 298 298 298 298 298 298 298 298 298 297 297 297 297 297 297 296
313 313 315 313 313 314 315 315 317 317 316 318 318 316 313 314 314 313 313 309 306 304 301 299 298 297 296 297 297 298 298 298 298 297 297 297 296 296 295 295 295 296 296 296
312 313 313 314 312 312 313 314 315 316 317 317 317 316 314 314 314 312 310 308 306 303 300 298 297 296 296 296 297 296 296 296 296 296 296 296 296 295 295 295 295 295 295 295
312 314 313 313 312 311 311 313 314 315 316 317 315 316 315 315 315 313 311 309 306 302 300 298 296 295 295 295 296 297 299 299 299 297 296 295 295 294 294 294 294 294 293 293
312 313 312 313 312 312 312 311 312 313 314 315 315 315 314 313 313 313 313 310 306 303 301 298 296 296 295 296 299 299 297 296 294 295 295 294 293 293 293 293 293 293 292 292
312 313 313 313 313 313 313 312 311 311 313 312 314 314 313 313 313 312 312 312 307 305 301 298 297 295 297 299 298 296 294 293 293 291 292 292 292 292 292 291 291 291 291 290
311 312 312 312 310 312 311 310 311 311 311 312 312 312 312 312 312 312 312 312 309 305 302 299 298 296 297 299 296 294 292 291 291 290 292 290 291 290 290 290 289 289 289 287
307 310 311 312 312 309 310 310 311 312 312 311 311 311 311 311 311 311 311 311 309 305 303 300 298 296 298 297 294 294 296 291 289 289 289 289 289 289 289 288 288 288 286 285
305 304 309 312 313 313 309 309 309 310 312 311 311 311 310 310 312 311 310 310 309 305 302 299 298 297 296 296 298 297 298 294 289 287 288 288 288 288 288 286 286 285 284 284
307 307 309 310 309 310 310 308 308 311 310 309 310 310 310 310 310 310 308 307 308 304 300 298 297 296 296 296 294 290 289 287 287 287 286 287 287 286 285 284 284 283 282 282
308 308 308 308 308 309 307 307 309 309 308 306 307 309 310 310 309 308 303 303 302 300 297 296 296 294 294 292 291 288 288 287 286 284 285 285 285 284 283 282 282 281 280 280
305 306 308 309 309 306 304 305 305 305 300 303 303 305 306 308 305 301 298 295 295 295 293 292 291 291 290 290 289 287 286 285 284 284 284 284 283 281 281 280 280 279 280 280
305 304 306 305 305 306 304 304 304 304 303 300 301 302 301 304 301 298 294 291 291 291 291 290 289 289 289 286 284 284 285 284 283 283 282 281 280 279 279 279 279 279 279 278
304 304 304 305 304 303 302 303 303 302 302 299 298 298 298 297 296 295 291 289 287 287 287 288 288 286 284 283 283 283 282 282 281 280 279 279 278 278 278 278 278 277 277 276
303 304 304 305 304 301 299 297 298 302 297 295 294 295 295 295 292 289 287 287 286 285 285 283 282 281 282 283 281 281 281 280 279 278 278 278 277 277 277 277 276 276 275 275
Wind_Speed
17 11 16 19 19 15 17 13 17 13 11 5 15 18 19 22 24 25 24 24 25 28 27 21 19 15 15 20 20 22 22 22 19 21 25 26 28 26 30 32 32 28 24 25
11 17 19 18 18 19 18 17 15 11 3 4 15 21 20 24 26 27 26 27 28 28 23 17 13 17 20 22 22 24 24 23 20 19 20 19 17 19 24 23 24 25 24 23
22 3 21 14 16 18 20 20 16 15 11 13 16 24 23 25 32 30 28 28 24 21 18 14 11 13 16 17 17 17 19 19 19 17 16 17 17 17 16 16 16 18 19 17
18 24 11 19 18 16 19 16 15 13 11 10 5 8 13 7 10 13 20 20 20 15 9 6 8 10 12 13 12 12 11 11 10 13 13 15 15 14 11 9 10 12 12 13
12 17 19 18 20 18 13 9 9 11 13 15 18 11 10 11 11 10 11 15 15 5 5 4 6 8 9 9 8 7 6 6 8 11 13 12 13 13 13 12 11 10 10 12
20 2 13 23 8 17 7 5 4 5 8 12 17 14 15 16 18 18 4 1 3 3 2 3 5 5 6 5 4 3 3 3 1 4 9 12 13 14 14 12 11 12 13 15
16 14 6 6 18 13 17 12 5 6 7 10 4 12 22 1 1 4 6 4 6 7 5 4 3 2 3 2 1 2 4 5 5 5 6 6 7 9 10 9 9 10 11 12
11 8 17 12 16 10 21 17 7 8 9 9 13 11 12 9 15 7 4 7 9 7 7 6 6 5 4 3 3 3 4 6 8 9 9 8 8 7 7 6 6 4 3 1
13 12 5 16 13 14 14 17 17 13 1 5 10 9 11 7 9 9 10 8 10 9 8 7 7 7 6 6 6 6 6 7 8 9 9 9 9 8 8 6 5 4 4 3
6 4 9 11 11 15 12 8 9 4 7 12 14 18 13 15 16 11 11 16 13 11 10 9 7 7 8 8 8 8 8 8 9 9 9 9 8 7 6 5 4 2 1 1
8 6 5 7 15 17 12 10 8 7 9 7 13 14 12 10 13 14 17 16 15 14 13 12 11 11 11 10 9 9 9 8 7 7 6 5 4 3 1 1 1 2 2 4
20 7 9 15 5 17 18 21 18 7 9 5 5 12 4 3 5 10 14 17 17 17 16 15 14 13 13 12 10 8 8 6 5 3 2 1 0 1 2 2 4 4 5 6
15 7 5 6 7 12 14 20 22 19 4 14 12 16 4 7 9 10 13 17 19 20 20 19 17 16 14 15 13 12 10 9 7 5 3 2 2 3 3 3 3 4 5 6
19 13 15 17 18 11 14 22 22 20 13 20 19 26 23 13 13 13 16 19 21 23 22 20 18 18 18 17 15 13 10 7 5 4 3 3 3 4 4 4 3 4 6 5
9 8 21 23 21 20 16 22 23 23 25 18 23 18 27 24 19 19 24 21 24 25 25 26 24 22 20 19 18 14 12 10 8 7 7 6 6 5 5 5 2 2 2 4
16 8 14 17 21 21 24 20 16 25 27 24 27 27 27 26 27 24 22 25 28 29 31 29 26 25 24 22 19 16 13 12 11 8 7 7 7 5 4 2 1 2 4 6
17 9 8 16 15 17 19 26 26 21 22 24 23 29 26 25 22 22 21 29 34 35 36 34 31 29 28 25 21 17 13 10 11 8 8 8 7 6 4 1 1 3 5 8
12 19 9 11 11 18 16 18 23 29 28 26 26 27 28 26 26 25 28 33 35 35 36 38 35 32 31 27 22 18 15 13 12 11 11 9 8 6 4 1 1 4 6 7
4 2 7 8 15 21 6 12 22 24 29 27 29 30 32 35 28 31 36 32 36 38 39 38 41 39 33 27 22 19 17 14 13 13 12 9 8 6 4 2 1 3 6 7
18 11 7 6 6 7 13 24 17 14 15 31 24 26 27 34 12 22 24 34 29 32 37 43 44 37 32 28 24 20 19 18 16 14 11 11 9 7 4 1 2 4 5 8
10 13 17 16 10 9 10 6 16 12 12 10 25 35 36 17 29 31 11 22 33 41 42 38 35 34 32 27 23 19 17 18 17 15 14 11 8 6 4 3 4 5 6 7
12 8 10 10 11 17 7 6 15 11 12 11 11 19 22 28 27 25 21 26 36 38 35 35 34 32 29 26 23 20 19 18 16 15 12 9 7 5 4 4 4 6 8 10
14 14 11 9 6 2 5 9 20 31 23 21 17 20 20 21 26 22 22 24 29 31 32 31 32 30 27 25 22 20 20 17 16 14 11 9 8 6 4 4 5 6 8 10
8 15 11 15 15 17 23 24 27 27 36 30 25 22 18 23 23 22 22 25 28 31 32 31 30 27 24 21 22 20 18 18 17 14 11 9 7 5 4 5 6 8 9 11
11 7 10 11 13 18 26 31 31 24 32 38 28 22 17 18 21 26 28 28 28 29 30 30 28 25 24 24 20 19 18 17 15 13 10 8 7 6 6 6 7 8 9 11
9 8 6 7 11 8 7 8 11 10 29 31 26 23 21 21 21 25 27 28 29 29 28 28 27 26 24 21 20 19 17 15 13 12 10 8 7 6 6 6 7 7 9 10
Wind_Direction
203 210 217 218 221 229 255 255 246 246 241 257 257 262 264 262 263 261 261 262 262 266 275 282 285 286 285 286 284 283 279 273 264 257 256 250 249 248 254 261 265 267 259 253
198 223 224 226 230 232 237 245 244 259 249 270 270 268 268 264 257 256 257 260 262 267 274 279 285 276 288 294 293 288 279 277 266 253 247 243 242 245 264 269 262 264 263 252
216 191 219 220 218 223 229 234 240 248 259 233 271 275 255 251 248 249 251 255 261 268 278 279 288 294 299 304 302 297 284 273 268 257 243 238 235 239 242 239 258 274 271 260
229 231 224 217 222 221 236 227 243 259 262 255 163 288 297 271 253 238 238 250 259 263 262 278 288 297 305 309 314 312 301 279 268 252 237 232 233 240 248 247 243 246 258 270
205 211 208 222 215 216 247 248 219 239 251 269 253 268 278 241 249 240 231 252 249 227 240 256 282 290 302 312 322 328 323 291 251 234 206 218 233 233 228 232 230 240 244 250
221 174 241 224 210 228 220 170 193 245 259 254 246 239 262 248 235 237 230 210 162 181 194 249 268 275 295 302 318 333 357 3 114 194 199 204 214 223 232 245 249 245 252 250
214 223 230 213 208 209 201 189 197 217 211 246 206 217 249 104 26 180 234 263 183 205 193 193 222 251 245 261 336 24 51 61 88 118 146 174 188 209 224 231 239 237 238 252
195 202 198 193 203 190 196 191 187 218 224 261 198 238 238 269 243 226 209 190 193 199 208 190 206 211 209 193 159 115 102 98 101 107 118 133 141 152 159 152 153 162 171 185
202 232 183 179 197 193 192 222 228 280 316 277 237 229 259 213 187 199 219 218 216 198 193 190 181 187 188 178 166 148 129 120 117 116 116 118 120 124 122 120 113 101 80 56
186 234 181 173 202 232 228 206 207 202 224 236 243 252 251 185 216 210 224 220 204 199 192 183 175 184 186 176 164 154 144 136 126 124 125 121 119 116 113 111 110 99 61 342
211 230 161 162 206 197 199 222 223 222 236 246 259 256 249 257 218 199 214 211 202 202 195 187 186 191 188 177 167 160 155 148 141 136 127 121 115 111 89 350 345 325 323 313
208 220 220 208 222 228 212 214 209 212 196 220 268 260 152 69 268 187 198 199 199 198 196 191 191 189 186 184 180 171 166 164 154 138 146 165 169 294 302 314 313 318 318 323
189 225 202 239 242 219 227 233 220 231 265 238 237 257 299 255 211 221 197 196 199 197 194 192 192 191 192 192 192 189 189 186 186 189 197 243 282 294 298 308 316 312 319 324
191 224 220 229 232 193 212 228 230 232 238 245 238 251 263 222 220 210 208 206 202 201 198 196 195 196 202 201 201 202 199 201 200 211 239 273 292 293 290 297 329 329 325 336
196 230 229 242 254 261 236 225 226 227 232 229 246 240 255 256 252 214 220 210 205 204 200 200 200 199 204 206 206 208 217 225 232 236 241 251 262 253 252 265 293 319 359 1
196 233 226 247 247 242 250 246 242 230 235 242 247 252 254 263 263 251 217 212 212 208 207 204 202 202 204 208 212 219 223 223 221 233 255 257 248 240 243 245 286 343 15 18
210 224 223 247 241 246 247 236 237 243 236 238 241 248 256 254 257 253 232 215 214 212 206 204 204 204 206 210 213 215 222 236 243 239 243 245 241 240 248 271 353 27 25 21
226 218 220 244 248 242 241 241 231 238 238 239 243 252 253 254 264 266 252 228 220 212 203 205 206 206 208 209 210 213 217 227 236 237 241 233 230 230 223 241 358 20 22 13
232 224 230 232 242 246 286 236 224 224 239 240 241 246 254 260 264 269 253 232 228 213 210 202 208 209 208 206 208 214 221 227 233 234 231 226 226 223 216 217 321 15 9 2
211 233 224 219 253 227 244 245 239 233 249 250 242 247 247 247 240 252 253 237 219 202 196 204 210 207 206 207 214 217 223 225 235 231 225 223 217 218 226 250 330 355 349 347
201 215 222 232 247 256 268 330 174 183 239 243 231 232 237 230 227 247 259 213 199 196 199 207 207 205 207 208 210 213 214 217 223 222 217 215 213 218 240 290 325 330 333 334
205 205 214 231 238 248 251 143 204 245 297 295 272 244 247 241 235 229 222 195 192 195 198 202 201 203 205 206 208 212 218 221 219 215 210 210 214 230 249 275 311 328 335 334
240 236 237 228 243 167 186 232 279 297 294 288 278 269 265 233 219 210 198 197 197 199 199 198 200 199 200 203 206 208 212 213 213 212 207 207 215 230 256 292 308 306 310 314
234 237 239 243 247 252 260 263 258 263 266 270 267 264 256 234 218 209 202 198 196 198 198 200 199 199 200 199 201 204 210 210 208 206 206 209 218 234 256 274 286 297 309 316
248 211 218 241 260 269 265 254 254 263 276 260 263 256 245 236 223 213 201 200 198 196 196 201 201 199 197 196 201 203 200 202 202 203 208 212 219 231 246 267 287 303 312 319
205 219 213 237 238 244 276 274 276 264 268 263 263 262 245 232 222 212 203 199 200 196 193 193 194 195 194 198 198 195 196 198 201 206 212 216 226 242 261 278 293 307 313 316